RH
35 34 34 37 41 44 46 49 50 52 53 53 53 53 53 51 51 54 58 61 62 61 62 66 69 68 66 63 61 60 59 56 53 50 46 43 41 38 35 35 34 31 28 26 25 26 27 27 27 27 27 26 22 20 19 20 20 21 22 23 24 25 25 24 25 26 26 24 22 21 20 21 22 21 20 19 20 21 22 22 22 23 24 24 23
34 34 35 37 41 43 46 49 50 51 52 53 53 53 51 51 52 55 58 60 60 60 61 64 66 65 63 60 58 57 56 53 50 47 44 41 39 36 34 34 33 31 29 27 27 26 27 27 27 27 28 26 23 20 19 19 21 21 21 23 24 26 26 27 26 27 28 27 26 24 22 22 22 21 21 20 21 23 24 24 24 25 26 27 26
34 35 36 38 41 43 45 48 50 51 51 52 54 53 52 53 53 55 57 59 59 59 62 63 62 60 57 55 55 55 54 52 50 47 44 40 37 34 34 34 33 32 31 29 28 27 26 26 26 27 28 27 24 20 19 20 20 21 23 23 24 26 28 28 28 28 29 30 29 28 25 23 24 23 22 22 22 24 25 25 26 27 28 29 28
34 35 36 37 40 41 44 48 50 50 51 53 54 54 54 54 55 56 57 57 57 59 61 62 61 57 55 54 55 55 55 54 51 47 44 41 37 35 35 34 33 33 32 30 29 28 27 26 26 27 28 28 25 22 19 20 20 21 23 23 24 26 28 30 30 29 29 31 32 32 29 26 26 25 24 24 24 25 26 26 27 27 28 29 29
35 36 36 37 38 40 43 47 49 50 52 53 55 55 55 56 57 57 58 57 58 58 58 59 60 58 57 57 57 57 56 54 51 48 45 42 39 37 36 35 35 35 34 32 31 30 29 28 27 27 28 28 26 23 20 20 21 22 23 24 25 26 28 31 32 32 32 32 33 34 32 30 29 27 26 26 27 27 26 27 28 28 28 29 30
35 36 36 36 37 40 43 46 48 50 52 53 55 56 55 57 58 59 59 59 58 58 57 59 59 57 57 57 58 58 56 53 50 48 45 42 40 38 37 37 38 39 37 36 34 34 32 31 30 29 29 29 29 27 23 21 22 24 24 25 26 27 28 31 33 34 34 33 33 34 33 32 31 30 28 29 31 30 29 28 28 28 30 31 30
35 35 36 36 37 40 43 45 48 52 53 54 57 57 56 58 60 61 61 61 59 58 58 59 59 57 55 57 58 58 55 51 49 47 45 42 41 40 40 41 42 42 41 39 38 37 36 34 32 31 30 31 33 31 27 25 25 26 27 27 27 29 30 32 34 35 36 35 34 33 33 32 33 33 31 32 34 34 32 31 30 30 32 34 33
35 36 36 36 37 39 43 46 49 53 55 56 58 58 57 59 60 61 62 62 61 59 58 59 59 57 56 57 57 56 54 50 47 45 44 44 44 44 45 45 45 45 44 42 41 40 40 37 35 34 34 34 36 35 31 30 30 30 31 31 31 31 32 34 35 36 36 36 34 33 33 33 34 35 35 36 38 38 38 36 34 32 32 34 35
35 36 37 37 38 40 43 47 50 54 57 58 59 59 59 59 60 61 62 63 62 60 58 60 62 60 58 58 56 54 52 48 45 45 45 46 48 50 49 48 48 48 47 46 45 44 43 40 38 38 37 38 38 37 35 35 35 35 35 35 35 36 36 37 37 37 37 36 34 32 33 34 35 37 38 42 43 42 41 38 34 32 32 33 33
34 36 37 37 39 41 43 46 50 54 57 59 59 60 60 60 60 61 62 63 63 60 59 61 63 63 62 60 59 56 52 49 47 47 48 49 52 53 52 51 51 50 50 50 49 48 46 43 42 41 40 41 41 40 39 38 38 39 39 39 40 41 41 40 39 40 39 35 33 32 32 34 38 39 41 46 46 43 41 38 35 32 33 34 32
34 36 37 38 40 41 43 45 49 54 58 59 60 61 61 61 62 63 62 62 62 60 59 60 62 63 63 62 61 59 56 53 51 51 52 53 55 55 55 55 53 52 52 51 51 51 49 45 45 45 44 43 44 43 43 43 42 42 42 42 44 45 45 44 42 41 39 34 34 34 34 35 38 40 44 48 46 44 42 39 35 34 34 35 34
34 36 37 38 40 41 42 45 50 55 58 60 61 62 62 62 62 62 61 60 60 59 58 59 61 61 61 60 60 61 59 56 54 54 55 55 56 56 55 55 54 53 53 54 55 54 51 48 48 48 46 45 47 47 46 47 46 45 45 46 49 50 48 47 44 41 36 35 37 37 36 37 38 40 45 48 46 45 43 38 35 35 34 36 35
35 37 37 39 39 40 42 46 51 56 59 61 62 63 64 63 62 61 60 60 59 59 59 59 59 59 58 58 59 59 58 56 55 54 54 54 55 55 55 55 56 56 56 58 59 59 58 54 49 47 46 48 52 51 47 47 48 48 49 52 56 57 53 48 45 40 37 39 40 38 37 38 39 40 45 48 47 46 42 37 36 36 35 36 36
36 37 38 39 39 40 43 47 53 57 60 62 63 64 65 64 62 62 61 60 59 59 60 60 60 59 58 58 57 57 57 57 57 56 55 55 55 55 56 58 62 65 64 61 60 61 63 61 53 48 46 50 57 55 49 48 48 49 55 59 61 62 56 48 45 42 42 44 40 36 37 37 37 38 42 46 46 44 40 37 37 38 37 37 36
37 37 38 39 40 41 44 49 54 58 61 62 63 65 66 65 64 63 62 61 60 60 62 61 61 61 59 58 57 57 57 57 59 59 59 58 58 57 59 63 67 71 68 61 58 55 55 58 59 54 47 50 60 61 54 51 53 56 60 62 62 61 54 48 47 46 44 42 37 35 37 36 35 37 40 44 46 43 39 38 38 38 38 37 36
37 37 39 40 41 42 46 51 56 59 61 63 64 65 66 65 65 64 63 62 61 61 61 61 63 64 62 61 59 59 59 60 61 63 62 62 62 61 64 67 67 66 62 57 56 52 49 51 55 54 51 55 64 67 63 58 57 57 59 59 60 58 51 47 49 47 43 39 36 36 38 36 36 38 41 45 47 44 39 39 38 37 38 39 39
37 38 39 40 42 44 47 52 56 59 62 64 65 66 66 66 65 64 64 62 61 61 61 61 63 64 64 63 63 62 62 62 64 66 66 65 64 63 65 67 67 64 59 54 54 53 50 48 48 51 59 65 67 65 60 53 50 54 58 58 57 54 50 48 48 45 42 39 36 36 38 39 40 41 43 47 48 44 40 41 39 37 39 41 42
37 38 40 41 42 44 47 52 56 59 63 66 68 68 67 66 67 66 64 63 62 63 64 62 62 63 64 65 64 63 63 63 65 68 67 65 65 65 64 65 67 64 58 55 56 54 51 49 47 52 63 67 62 54 48 47 52 59 60 57 53 51 49 47 45 43 43 40 37 37 41 43 44 44 46 49 49 43 40 41 40 39 40 43 43
37 39 41 43 43 44 48 53 55 56 60 66 69 69 68 67 68 67 66 65 65 66 67 66 64 63 64 65 64 63 64 64 65 66 66 66 66 66 65 66 66 64 60 60 61 58 55 52 49 53 61 60 53 46 45 52 61 61 56 52 51 48 46 42 42 45 44 38 36 39 43 46 47 46 48 51 49 44 41 41 40 40 42 44 44
39 42 44 44 45 45 48 51 53 56 61 66 69 70 70 69 68 67 66 67 68 69 69 68 67 66 66 67 68 68 68 68 68 68 69 68 66 65 66 64 63 65 67 67 66 63 63 58 52 56 62 58 50 47 49 56 62 57 50 48 47 44 41 40 42 45 41 35 35 39 44 47 49 48 49 51 49 45 42 40 40 40 42 45 45
42 45 46 45 47 50 51 53 56 61 66 67 68 70 72 70 67 67 68 70 71 71 70 68 68 69 70 71 73 73 70 69 68 68 68 68 67 68 68 65 65 70 73 73 70 68 65 60 57 60 62 56 51 49 50 53 54 50 46 46 45 44 43 43 45 45 40 37 38 42 44 48 49 49 49 51 50 46 43 41 41 41 42 44 45
46 46 46 45 48 53 58 60 63 66 68 67 66 69 71 69 67 67 68 70 70 70 70 70 70 72 75 75 74 71 67 66 66 67 68 69 70 70 69 68 73 77 77 75 72 69 67 64 63 64 61 54 50 50 50 50 49 47 47 49 50 50 49 49 49 47 43 42 43 45 47 48 48 48 49 51 51 48 44 42 42 41 42 44 45
48 46 46 47 50 56 62 67 67 66 67 67 67 69 70 69 68 69 69 68 68 69 70 71 71 73 75 73 69 66 65 67 69 69 69 69 69 68 67 68 73 77 78 77 76 75 73 70 66 64 60 55 52 54 55 54 52 52 53 53 52 52 51 51 52 51 49 48 49 51 52 51 50 49 49 51 53 51 46 44 42 42 43 44 45
49 48 48 52 56 59 63 67 68 65 65 66 66 67 69 70 71 71 69 68 68 69 70 71 72 73 70 65 64 66 68 71 73 71 68 66 66 66 67 68 71 76 80 82 82 80 75 66 61 60 58 55 56 59 60 58 57 56 55 53 51 51 51 52 53 51 49 47 47 49 50 50 51 51 50 52 54 54 50 46 43 42 44 45 46
50 51 54 57 60 62 64 68 70 67 65 65 65 68 71 72 73 71 68 67 67 67 68 68 69 67 64 63 69 73 73 71 71 67 65 66 66 65 66 66 69 76 81 83 82 78 69 62 62 63 61 60 61 62 61 59 58 57 54 51 49 49 49 49 46 44 42 41 44 45 43 43 49 53 53 54 57 57 53 46 42 43 45 46 46
53 57 61 62 62 64 68 72 71 68 68 68 67 68 69 69 69 67 65 64 62 61 61 60 60 62 65 70 77 77 73 69 67 66 66 67 66 64 64 64 66 70 72 74 75 71 67 67 68 66 63 63 64 63 61 61 61 58 54 52 49 47 44 43 41 40 40 42 46 46 42 44 51 55 55 55 58 59 54 47 43 44 47 47 47
59 66 66 64 64 66 69 71 69 68 69 68 66 65 66 65 64 62 59 58 57 58 58 58 60 66 72 75 75 73 68 66 67 68 68 68 67 65 63 61 62 63 64 65 67 69 71 72 70 65 63 65 66 66 64 62 61 59 56 53 50 46 43 41 40 40 41 45 49 49 47 49 53 55 56 58 58 59 57 51 46 46 47 49 49
61 67 66 65 66 67 68 68 67 66 66 65 64 64 63 62 60 58 56 57 58 59 59 59 60 67 72 73 72 70 69 68 69 70 71 69 68 66 63 59 58 60 60 59 59 62 68 72 71 67 65 65 65 65 60 56 55 54 53 52 50 48 45 43 41 41 44 48 52 52 52 55 58 58 59 60 58 59 60 56 50 48 48 50 50
62 65 65 66 67 66 65 64 63 62 62 62 61 60 58 57 57 57 58 59 59 59 59 58 60 64 68 69 69 68 70 72 71 71 70 69 67 65 63 60 57 56 55 54 52 53 60 67 69 68 65 64 63 60 56 50 48 48 48 50 52 51 48 46 45 47 48 51 53 55 57 61 63 62 62 62 59 60 63 61 56 52 50 52 52
66 66 65 65 65 62 61 60 59 58 58 56 56 55 55 55 56 57 59 59 59 59 61 61 63 64 64 64 64 66 70 71 69 67 66 66 65 63 60 59 57 55 54 53 51 51 55 64 68 67 65 64 62 58 54 49 46 47 47 50 53 53 49 47 49 53 55 55 56 57 58 62 66 66 66 67 64 63 65 65 62 57 54 54 54
66 66 64 62 59 56 56 57 56 55 54 53 53 53 54 55 56 57 59 60 61 62 63 64 66 66 66 66 67 68 69 69 66 63 61 60 61 60 58 57 58 57 55 55 55 57 59 63 65 66 65 64 62 60 56 52 49 50 50 52 54 53 49 48 51 57 60 60 59 58 59 61 66 69 70 71 69 67 67 67 66 63 60 57 55
62 63 60 57 54 52 52 52 51 51 52 52 53 54 55 56 58 58 60 62 63 64 65 66 67 69 70 71 71 70 70 70 68 64 60 59 59 58 58 57 57 55 54 56 60 63 61 58 56 58 62 66 64 61 58 56 54 54 54 54 56 54 48 47 51 56 61 62 62 61 61 62 67 72 74 73 72 70 68 69 69 67 63 59 57
58 58 54 51 50 48 48 48 48 49 51 52 53 55 55 55 57 60 62 64 64 64 66 69 71 72 72 72 74 73 72 72 69 63 59 58 58 58 59 60 60 58 58 58 60 62 60 57 54 54 57 62 63 61 59 57 56 55 54 56 58 55 49 49 54 59 63 64 65 65 65 66 69 74 76 75 74 72 71 71 71 69 65 60 58
54 52 50 48 48 48 49 49 49 49 50 51 54 55 55 57 60 62 64 66 68 68 71 75 78 76 73 73 74 74 73 72 68 63 59 58 58 58 59 60 60 60 60 61 62 62 61 60 58 55 54 56 58 58 57 56 56 56 56 58 59 57 52 53 58 64 66 68 68 69 70 71 73 74 76 77 77 75 73 73 73 71 67 62 59
52 52 51 51 51 52 52 52 52 54 55 55 55 55 59 67 73 75 75 76 76 76 77 79 77 74 73 73 73 72 72 70 66 63 61 60 59 58 57 58 58 58 57 58 58 60 61 63 62 59 57 56 55 55 54 54 56 58 59 58 57 55 54 56 61 66 69 70 70 70 72 73 75 76 78 80 79 77 74 73 73 72 69 64 61
55 54 54 54 55 55 55 57 61 64 65 62 59 57 63 74 82 84 85 84 80 78 78 75 71 70 73 75 72 68 67 66 64 62 60 57 56 57 58 58 58 58 57 57 57 58 60 61 60 59 59 59 58 56 56 54 52 52 53 53 50 48 50 55 60 64 68 70 71 72 73 75 76 78 81 82 80 77 74 74 73 72 69 66 63
59 59 59 59 59 59 60 62 65 67 66 63 64 68 77 84 86 86 85 83 80 77 74 70 67 67 70 69 65 62 61 61 60 59 58 57 56 58 60 59 58 58 58 59 60 61 61 60 58 56 56 56 54 52 51 49 46 44 45 46 46 46 50 55 60 63 66 69 71 72 74 75 77 79 82 82 81 78 76 76 74 72 70 67 65
64 65 66 66 66 66 66 66 66 67 66 65 68 73 79 82 82 82 80 79 76 73 70 67 65 64 62 61 59 58 58 58 58 59 61 62 62 63 63 61 59 58 59 60 62 63 63 61 58 55 54 52 50 47 45 44 42 41 42 44 48 53 59 62 63 64 66 68 69 71 73 76 79 80 82 82 82 80 79 78 76 73 71 69 67
68 69 70 71 71 71 70 69 68 69 70 71 71 72 73 73 74 74 72 70 69 67 65 64 62 58 57 58 58 59 60 61 61 61 61 61 63 65 64 62 61 62 63 63 62 61 59 55 51 50 50 49 47 46 46 46 45 46 48 50 53 59 63 63 63 64 65 66 69 72 75 77 79 80 82 84 85 84 82 81 79 76 73 71 69
70 71 74 75 75 73 72 72 73 73 74 73 70 68 67 67 67 67 66 65 64 63 62 60 58 55 55 57 57 58 60 62 62 61 59 59 62 65 65 64 63 63 63 60 57 53 49 46 42 40 41 42 43 46 49 50 49 50 52 53 55 58 60 60 61 63 65 68 72 75 77 77 79 80 82 85 86 87 86 84 81 78 76 73 71
71 73 74 74 73 73 73 75 75 74 71 68 65 62 62 63 63 63 63 62 61 60 59 58 57 57 57 57 58 59 59 59 60 61 60 60 60 62 63 62 60 58 55 52 48 43 40 38 37 36 39 43 46 49 51 52 51 50 51 53 54 54 54 55 55 57 60 66 71 75 77 79 81 82 83 85 87 87 88 87 84 80 78 76 74
72 72 72 71 70 70 70 70 68 66 63 62 61 61 61 61 61 61 61 61 60 60 60 60 60 60 60 60 60 60 59 58 58 58 57 57 56 57 57 56 54 51 49 47 44 42 40 41 43 43 45 47 48 49 50 51 51 51 51 51 53 53 52 52 52 52 56 63 69 73 77 80 82 82 83 85 87 89 89 88 86 83 80 78 77
70 69 68 66 64 62 61 60 59 59 59 60 60 61 61 61 62 62 62 62 62 62 62 62 62 62 62 61 60 59 57 54 54 54 55 54 52 51 51 50 49 48 48 46 45 45 47 51 53 52 52 50 50 49 49 49 48 49 50 53 55 55 53 52 53 55 58 62 66 71 77 81 82 81 82 84 87 88 88 87 86 84 81 79 78
67 65 64 62 59 57 57 57 58 59 60 61 62 63 64 64 64 64 63 63 63 61 60 61 62 62 61 58 55 52 49 48 49 51 51 49 46 45 44 44 45 46 46 45 46 49 54 58 59 58 55 53 51 49 48 47 47 49 52 55 55 52 50 51 55 59 62 65 68 72 78 81 81 79 80 85 87 87 87 87 86 84 83 82 81
63 61 59 59 59 59 59 60 61 62 64 65 66 67 66 66 65 64 62 60 59 58 59 58 57 54 52 49 47 46 44 45 47 48 47 47 46 46 44 42 42 42 43 45 49 53 56 58 57 55 53 52 50 48 48 48 49 51 53 53 52 51 52 54 58 63 68 72 75 78 80 81 81 81 83 86 88 88 88 88 86 84 85 85 85
62 61 60 61 61 61 61 62 63 64 65 65 66 66 66 64 63 61 60 57 56 55 54 52 49 48 47 47 47 47 46 45 46 46 47 48 48 47 46 44 43 44 45 47 50 51 51 51 50 49 49 49 49 49 50 50 52 53 54 54 53 54 56 59 61 65 69 73 76 79 81 81 82 83 85 86 87 88 88 88 87 86 86 86 86
67 67 66 65 64 63 64 65 66 67 67 67 65 63 62 60 58 56 55 54 53 52 51 49 49 50 51 50 49 48 48 47 48 48 49 48 48 47 46 46 46 46 47 48 48 47 47 47 47 48 49 49 50 51 51 51 53 54 55 55 55 57 59 62 64 66 68 69 72 76 81 82 82 83 84 85 86 87 88 87 88 87 87 86 86
72 72 71 71 71 71 71 70 69 69 68 66 62 59 57 55 52 50 48 49 51 53 53 53 52 51 49 48 47 47 47 48 49 48 47 48 48 47 46 45 45 46 47 46 45 45 46 46 47 48 48 48 49 49 50 51 52 54 55 56 58 60 62 64 66 67 69 71 72 73 76 79 81 84 85 86 87 88 88 88 87 86 86 86 86
79 79 78 77 76 73 70 67 65 64 61 56 50 47 46 44 43 42 43 45 48 51 52 50 47 44 43 44 45 44 43 44 45 45 45 46 46 46 45 45 45 46 46 46 45 45 45 46 47 48 48 49 48 47 48 50 51 53 54 55 57 59 62 64 67 69 72 74 75 73 71 73 77 83 87 89 89 89 89 88 87 87 87 87 86
78 77 76 74 71 67 64 62 58 53 48 42 37 37 38 39 39 39 40 41 43 45 45 42 40 39 39 40 41 40 39 39 41 42 45 46 46 45 45 46 46 47 47 46 45 44 45 45 47 48 49 50 49 47 47 48 49 50 52 54 56 60 63 66 69 72 74 74 75 74 72 71 76 82 87 88 89 88 88 88 88 88 88 87 85
71 70 70 69 66 63 60 55 47 41 38 36 35 37 40 41 40 40 39 39 39 39 39 37 36 37 39 40 41 42 42 41 42 44 46 47 46 46 46 46 46 45 44 43 42 42 44 45 47 48 50 52 52 50 48 48 48 49 51 54 57 61 65 67 70 72 74 75 75 74 73 72 76 81 84 86 86 86 86 86 87 87 87 86 86